[[{"header":{"parameterUnit":"m.s-1","parameterCategory":1,"la1":30.2991,"la2":30.254,"lo1":-89.0895,"lo2":-89.0444,"dy":0.0017,"dx":0.0017,"nx":28,"ny":28,"refTime":"2023-10-30T03:00:00:Z","depth":0,"parameterNumber":2,"parameterNumberName":"U-component_of_WINDS"},"data":[0,0,0,0,0,0,0,0,0,0,0,0,0,0,0,0,0,0,0,0,0,0,0,0,0,0,0,0,0,0,0,0,0,0,0,0,0,0,0,0,0,0,0,0,0,0,0,0,0,0,0,0,0,0,0,0,0,0,0.4356,0.4355,0,0.4296,0.4295,0.4294,0.4281,0.4281,0.4282,0.4282,0.4219,0.4217,0.4215,0,0,0,0,0,0,0,0,0,0,0,0,0,0.4458,0.4456,0.4356,0.4355,0.4354,0.4296,0.4295,0.4294,0.4281,0.4281,0.4282,0.4282,0.4219,0.4217,0.4215,0,0,0,0,0,0,0,0,0,0,0,0,0,0.4407,0.4455,0.4356,0.434,0.4338,0.4296,0.4295,0.4294,0.4281,0.4281,0.4282,0.4282,0.422,0.4217,0.4214,0.4182,0,0,0.4205,0.4203,0,0,0,0,0,0,0,0,0.441,0.4403,0.4343,0.4341,0.4339,0.4296,0.4308,0.4256,0.428,0.4302,0.4282,0.4283,0.4244,0.4239,0.4226,0.4179,0.4177,0.4204,0.4202,0.4201,0.42,0,0,0,0,0,0,0,0.4414,0.4406,0.4332,0.4343,0.434,0.4336,0.433,0.4298,0.427,0.4301,0.4299,0.4293,0.4243,0.4229,0.4225,0.4176,0.4204,0.4202,0.42,0.4199,0.4101,0.41,0,0,0,0,0,0,0.442,0.4409,0.4334,0.433,0.4377,0.4334,0.4327,0.4309,0.4271,0.4265,0.4292,0.4292,0.4234,0.4228,0.4222,0.4183,0.4201,0.4198,0.4196,0.4101,0.41,0.41,0,0,0,0,0,0,0.4422,0.4413,0.4336,0.4369,0.4359,0.4332,0.4312,0.4308,0.4294,0.4264,0.4259,0.4283,0.4235,0.4227,0.4193,0.418,0.4197,0.4194,0.4102,0.4101,0.41,0.4103,0,0,0,0,0,0,0.4425,0.4414,0.4402,0.4369,0.4357,0.4308,0.4312,0.4306,0.4289,0.4289,0.4255,0.425,0.4234,0.4197,0.419,0.4176,0.4192,0.4103,0.4102,0.41,0.4104,0.4102,0.4101,0,0,0,0,0,0.4429,0.4404,0.4401,0.4392,0.4341,0.4307,0.43,0.4284,0.4288,0.4275,0.4257,0.4251,0.4183,0.4194,0.4185,0.4171,0.4104,0.4102,0.4101,0.4105,0.4103,0.4101,0,0,0,0,0,0,0.4435,0.44,0.4396,0.436,0.4337,0.4305,0.4288,0.4282,0.4256,0.4257,0.4237,0.423,0.4197,0.418,0.4193,0.4138,0.4144,0.414,0.415,0.4148,0.4146,0.415,0.4189,0,0,0,0,0,0.4433,0.4408,0.4378,0.435,0.4339,0.4316,0.43,0.4289,0.4264,0.4254,0.4232,0.4208,0.4181,0.4164,0.4137,0.4102,0.4095,0.4088,0.4087,0.4085,0.4082,0.4063,0.406,0.4094,0.4094,0.4094,0,0,0.4427,0.4405,0.439,0.4351,0.4331,0.4306,0.4307,0.428,0.4261,0.4249,0.4216,0.42,0.4171,0.4136,0.412,0.4122,0.4071,0.4083,0.4083,0.408,0.4061,0.4058,0.4055,0.4093,0.4093,0.4093,0,0,0.4403,0.4384,0.4358,0.4339,0.431,0.4296,0.429,0.4259,0.4248,0.4214,0.4205,0.4183,0.4137,0.4117,0.4101,0.4072,0.4066,0.4064,0.4055,0.4037,0.4034,0.4031,0.4021,0.4017,0.4061,0.4061,0.4061,0,0.4399,0.4361,0.4345,0.4319,0.4302,0.4292,0.4266,0.4248,0.4212,0.4201,0.4204,0.4147,0.4127,0.4088,0.4081,0.4069,0.4061,0.4067,0.4036,0.4033,0.403,0.402,0.4016,0.4061,0.4061,0.4061,0.4061,0,0.4357,0.4331,0.4314,0.428,0.4262,0.4236,0.4216,0.4199,0.4191,0.4176,0.4143,0.4119,0.4088,0.4078,0.4069,0.4038,0.404,0.404,0.4044,0.4027,0.4017,0.4013,0.4061,0.4061,0.4061,0.4061,0,0,0.4334,0.4294,0.4287,0.4272,0.4241,0.422,0.4194,0.4165,0.4151,0.4127,0.4104,0.4067,0.4067,0.4049,0.4038,0.4022,0.4001,0.4024,0.4023,0.402,0.3965,0.3965,0.396,0.3997,0.3996,0.3996,0.3967,0,0.4306,0.4259,0.4245,0.4206,0.4182,0.4173,0.415,0.4129,0.4114,0.4092,0.4076,0.405,0.4052,0.4041,0.4025,0.4007,0.3989,0.4009,0.3976,0.3975,0.3982,0.3955,0.3954,0.3928,0.3963,0.3963,0.3962,0,0.4266,0.4242,0.4201,0.4174,0.4163,0.4143,0.4115,0.4094,0.407,0.406,0.4041,0.4032,0.4005,0.4013,0.3975,0.3989,0.3975,0.3964,0.3963,0.3958,0.3966,0.3949,0.392,0.3916,0.3956,0.3956,0.3957,0,0.4252,0.421,0.418,0.4168,0.4135,0.4121,0.4107,0.4083,0.4067,0.4043,0.4033,0.4006,0.3991,0.3971,0.3955,0.3962,0.3918,0.3925,0.391,0.391,0.39,0.39,0.3867,0.3892,0.3892,0.3892,0.3892,0,0.4222,0.4196,0.4174,0.4155,0.4127,0.4112,0.4085,0.407,0.4049,0.4028,0.4019,0.3999,0.398,0.3957,0.3945,0.3915,0.3909,0.3901,0.3897,0.3901,0.3902,0.389,0.3891,0.3891,0.3892,0.3892,0.3892,0,0.4201,0.4185,0.4152,0.4124,0.4117,0.4097,0.4074,0.4055,0.4042,0.4015,0.4008,0.3986,0.3959,0.3942,0.3908,0.3899,0.3867,0.3865,0.3875,0.3874,0.386,0.3861,0.3817,0.381,0.3841,0.3841,0.384,0,0.4182,0.4163,0.4134,0.4119,0.4105,0.4081,0.4065,0.405,0.4033,0.4005,0.399,0.3963,0.394,0.3898,0.3879,0.3853,0.385,0.3836,0.3846,0.385,0.3849,0.385,0.3848,0.3834,0.3834,0.3834,0.3834,0,0.415,0.4143,0.412,0.4095,0.4076,0.4055,0.4034,0.4023,0.4004,0.3986,0.3959,0.3942,0.3908,0.3881,0.3853,0.3839,0.3833,0.3831,0.3826,0.3829,0.3836,0.3831,0.387,0.3832,0.3832,0.3832,0.3832,0.3832,0.4129,0.4111,0.4089,0.4064,0.4047,0.4028,0.401,0.3995,0.3972,0.3943,0.3936,0.3908,0.3885,0.3848,0.3833,0.3811,0.3812,0.3805,0.3803,0.3801,0.3801,0.384,0.3806,0.3806,0.3806,0.3806,0.3806,0,0.4095,0.4081,0.4058,0.403,0.4011,0.4009,0.3986,0.397,0.3945,0.3925,0.3903,0.3873,0.3847,0.3827,0.3801,0.3787,0.3784,0.378,0.3781,0.3777,0.3801,0.3808,0.3784,0.3784,0.3784,0.3784,0.3784,0.3784,0.4076,0.4046,0.4038,0.4,0.3986,0.3958,0.3946,0.3928,0.3912,0.3879,0.3858,0.3845,0.3825,0.3798,0.3774,0.3769,0.376,0.3757,0.3751,0.3773,0.3776,0.3778,0.3784,0.3755,0.3755,0.3729,0.3729,0.3728]},{"header":{"parameterUnit":"m.s-1","parameterCategory":1,"la1":30.2991,"la2":30.254,"lo1":-89.0895,"lo2":-89.0444,"dy":0.0017,"dx":0.0017,"nx":28,"ny":28,"refTime":"2023-10-30T03:00:00:Z","depth":0,"parameterNumber":3,"parameterNumberName":"V-component_of_WINDS"},"data":[0,0,0,0,0,0,0,0,0,0,0,0,0,0,0,0,0,0,0,0,0,0,0,0,0,0,0,0,0,0,0,0,0,0,0,0,0,0,0,0,0,0,0,0,0,0,0,0,0,0,0,0,0,0,0,0,0,0,-8.4058,-8.4059,0,-8.4198,-8.4199,-8.4201,-8.4129,-8.4126,-8.4122,-8.4119,-8.4254,-8.4261,-8.4268,0,0,0,0,0,0,0,0,0,0,0,0,0,-8.3723,-8.3729,-8.4058,-8.406,-8.4061,-8.4197,-8.4199,-8.4201,-8.413,-8.4126,-8.4121,-8.4117,-8.4252,-8.426,-8.4269,0,0,0,0,0,0,0,0,0,0,0,0,0,-8.3866,-8.3731,-8.4057,-8.4042,-8.4043,-8.4197,-8.4199,-8.4202,-8.4131,-8.4126,-8.412,-8.4115,-8.4249,-8.4259,-8.427,-8.4445,0,0,-8.4302,-8.4306,0,0,0,0,0,0,0,0,-8.3858,-8.3878,-8.4043,-8.4044,-8.4044,-8.4141,-8.4131,-8.4283,-8.4132,-8.4097,-8.4119,-8.4112,-8.422,-8.4233,-8.4271,-8.4451,-8.4457,-8.4303,-8.4309,-8.4314,-8.4317,0,0,0,0,0,0,0,-8.3848,-8.3872,-8.4113,-8.4045,-8.4046,-8.4026,-8.4041,-8.4159,-8.4187,-8.41,-8.4095,-8.4113,-8.4219,-8.4261,-8.4273,-8.4459,-8.4302,-8.4312,-8.4318,-8.4322,-8.4789,-8.4795,0,0,0,0,0,0,-8.384,-8.3864,-8.4108,-8.4117,-8.3936,-8.4037,-8.4053,-8.4115,-8.4186,-8.4192,-8.4118,-8.4109,-8.4246,-8.4261,-8.4278,-8.4487,-8.4314,-8.4323,-8.433,-8.4783,-8.479,-8.4797,0,0,0,0,0,0,-8.3833,-8.3862,-8.4103,-8.3989,-8.4018,-8.4049,-8.4119,-8.4121,-8.4162,-8.42,-8.4204,-8.4155,-8.4242,-8.4263,-8.4404,-8.4491,-8.4328,-8.4338,-8.4776,-8.4785,-8.4793,-8.4908,0,0,0,0,0,0,-8.3824,-8.386,-8.3929,-8.3992,-8.4025,-8.4229,-8.4124,-8.4127,-8.4181,-8.4172,-8.4236,-8.4241,-8.4239,-8.4389,-8.4415,-8.4503,-8.4346,-8.4768,-8.478,-8.4791,-8.4896,-8.492,-8.494,0,0,0,0,0,-8.3812,-8.3953,-8.3932,-8.3962,-8.4111,-8.4234,-8.4253,-8.425,-8.4189,-8.4257,-8.4281,-8.4239,-8.4478,-8.4404,-8.4432,-8.4525,-8.4762,-8.4776,-8.479,-8.4887,-8.4915,-8.4939,0,0,0,0,0,0,-8.3897,-8.3961,-8.3939,-8.4105,-8.4165,-8.4222,-8.4308,-8.428,-8.4357,-8.4344,-8.4335,-8.435,-8.4497,-8.4524,-8.4441,-8.4698,-8.461,-8.463,-8.4674,-8.4702,-8.4723,-8.4713,-8.4355,0,0,0,0,0,-8.3936,-8.4033,-8.4082,-8.4225,-8.4256,-8.4277,-8.433,-8.4324,-8.4384,-8.4408,-8.4442,-8.4501,-8.4588,-8.4646,-8.4729,-8.49,-8.4913,-8.4978,-8.4999,-8.5017,-8.5034,-8.5126,-8.5156,-8.4842,-8.4841,-8.4841,0,0,-8.4015,-8.4063,-8.4124,-8.4243,-8.4289,-8.4387,-8.4299,-8.4406,-8.4479,-8.4423,-8.456,-8.4587,-8.4651,-8.4808,-8.4879,-8.4836,-8.5124,-8.5034,-8.5048,-8.5056,-8.5143,-8.5173,-8.5199,-8.4851,-8.4849,-8.4848,0,0,-8.4211,-8.4258,-8.4381,-8.443,-8.4501,-8.4514,-8.4544,-8.4606,-8.4622,-8.476,-8.472,-8.4805,-8.4957,-8.5004,-8.5048,-8.5264,-8.5228,-8.5291,-8.5404,-8.5494,-8.5518,-8.554,-8.5617,-8.5644,-8.5308,-8.5308,-8.5308,0,-8.4301,-8.4451,-8.4448,-8.456,-8.4613,-8.457,-8.4694,-8.474,-8.4834,-8.487,-8.4822,-8.5012,-8.5052,-8.522,-8.5273,-8.531,-8.5342,-8.5283,-8.5516,-8.5537,-8.5558,-8.5631,-8.5659,-8.5315,-8.5315,-8.5314,-8.5313,0,-8.4557,-8.4661,-8.4752,-8.4847,-8.491,-8.5028,-8.5041,-8.5105,-8.5092,-8.511,-8.525,-8.5297,-8.5389,-8.5428,-8.5415,-8.5594,-8.5565,-8.5517,-8.5428,-8.5595,-8.5663,-8.5691,-8.5326,-8.5323,-8.5321,-8.5319,0,0,-8.4809,-8.4903,-8.4936,-8.4979,-8.5055,-8.5134,-8.5249,-8.5342,-8.5397,-8.5463,-8.5558,-8.5688,-8.5644,-8.5694,-8.5687,-8.5766,-8.5933,-8.5707,-8.5708,-8.5747,-8.6132,-8.6168,-8.6201,-8.5911,-8.5916,-8.592,-8.6127,0,-8.5011,-8.5215,-8.5216,-8.5403,-8.5499,-8.546,-8.556,-8.5616,-8.5636,-8.5718,-8.5738,-8.5832,-8.5766,-8.5796,-8.5873,-8.5897,-8.601,-8.5882,-8.5997,-8.6001,-8.5982,-8.6236,-8.6275,-8.6468,-8.6153,-8.6158,-8.6161,0,-8.5273,-8.5351,-8.5548,-8.5611,-8.5651,-8.5742,-8.5827,-8.5907,-8.5969,-8.5978,-8.6035,-8.6016,-8.613,-8.604,-8.6197,-8.611,-8.6157,-8.6175,-8.6183,-8.6193,-8.6091,-8.6253,-8.6529,-8.6558,-8.6203,-8.62,-8.6197,0,-8.5437,-8.5591,-8.5729,-8.5767,-8.5844,-8.5908,-8.5943,-8.6,-8.6056,-8.613,-8.6166,-8.6251,-8.6297,-8.6363,-8.6366,-8.63,-8.6525,-8.6434,-8.6534,-8.6534,-8.6582,-8.6579,-8.6869,-8.6613,-8.6613,-8.6612,-8.6612,0,-8.5662,-8.5784,-8.5805,-8.589,-8.6025,-8.6025,-8.6158,-8.6186,-8.6238,-8.6326,-8.6297,-8.6379,-8.638,-8.6463,-8.6467,-8.6596,-8.6617,-8.6626,-8.6625,-8.6629,-8.6628,-8.6659,-8.6645,-8.662,-8.6618,-8.6617,-8.6616,0,-8.5868,-8.5887,-8.6035,-8.6097,-8.6115,-8.6212,-8.6264,-8.6344,-8.6361,-8.6473,-8.6499,-8.6526,-8.6623,-8.6634,-8.6746,-8.6748,-8.6905,-8.6889,-8.6885,-8.6882,-8.6981,-8.6971,-8.7301,-8.7344,-8.7061,-8.7063,-8.7066,0,-8.601,-8.6103,-8.6176,-8.6235,-8.6274,-8.6368,-8.6426,-8.6428,-8.6489,-8.6568,-8.6638,-8.6733,-8.681,-8.6967,-8.6994,-8.708,-8.7067,-8.7176,-8.7079,-8.708,-8.7068,-8.7062,-8.7071,-8.7195,-8.7198,-8.72,-8.7202,0,-8.6259,-8.6265,-8.6351,-8.6441,-8.6511,-8.6581,-8.6647,-8.6696,-8.6706,-8.6776,-8.6877,-8.6936,-8.7053,-8.7147,-8.7232,-8.7264,-8.7235,-8.7233,-8.7261,-8.7265,-8.7258,-8.7263,-8.6936,-8.7225,-8.7223,-8.7221,-8.722,-8.7219,-8.6438,-8.6519,-8.6584,-8.6681,-8.6731,-8.6793,-8.6872,-8.6901,-8.6986,-8.7083,-8.7078,-8.719,-8.7249,-8.736,-8.7399,-8.7484,-8.7447,-8.7487,-8.7497,-8.7507,-8.7517,-8.7245,-8.75,-8.7499,-8.7498,-8.7498,-8.7497,0,-8.6686,-8.6726,-8.6815,-8.691,-8.6986,-8.6955,-8.7026,-8.7091,-8.719,-8.7249,-8.7326,-8.7441,-8.7533,-8.7569,-8.7658,-8.7719,-8.7708,-8.7742,-8.7737,-8.7745,-8.7545,-8.7513,-8.775,-8.775,-8.775,-8.775,-8.775,-8.775,-8.6824,-8.6961,-8.6974,-8.7135,-8.7173,-8.7284,-8.7328,-8.7384,-8.7432,-8.7564,-8.7641,-8.7665,-8.7714,-8.7807,-8.7889,-8.7897,-8.793,-8.7971,-8.7973,-8.7785,-8.7759,-8.7735,-8.7704,-8.7978,-8.7978,-8.8166,-8.8167,-8.8169]}]]